Tekamah, NE

4:09 AM CDT on June 25, 2017 (GMT -0500)
Tekamah

Weather History for KTQE - May, 2014

Change the Weather History Date:

Thursday, May 29, 2014

  Actual Average Record
Temperature  
Mean Temperature 74 °F -  
Max Temperature 88 °F 77 °F 97 °F (1991)
Min Temperature 61 °F 56 °F 44 °F (1952)
Cooling Degree Days 8    
Growing Degree Days 24 (Base 50)    
Moisture  
Dew Point 61 °F    
Average Humidity 63    
Maximum Humidity 87    
Minimum Humidity 43    
Precipitation  
Precipitation 0.00 in - - ()
Sea Level Pressure  
Sea Level Pressure 29.98 in    
Wind  
Wind Speed 7 mph (East)    
Max Wind Speed 14 mph    
Max Gust Speed 18 mph    
Visibility 10 miles    
Events      
Averages and records for this station are not official NWS values.
T = Trace of Precipitation, MM = Missing Value Source: NWS Daily Summary

Daily Weather History Graph

Daily Weather History Graph

Search for Another Location

Airport or City:

Trip Planner

Search our weather history database for the weather conditions in past years. The results will help you decide how hot, cold, wet, or windy it might be!

Date:

Astronomy

May. 29, 2014 Rise Set
Actual Time 5:53 AM CDT 8:50 PM CDT
Civil Twilight 5:20 AM CDT 9:24 PM CDT
Nautical Twilight 4:38 AM CDT 10:06 PM CDT
Astronomical Twilight 3:49 AM CDT 10:55 PM CDT
Moon 6:49 AM CDT (5/29) 9:41 PM CDT (5/29)
Length of Visible Light 16h 03m
Length of Day
14h 56m
New Moon, 1% of the Moon is Illuminated
May 29
New Moon
Jun 5
First Quarter
Jun 12
Full
Jun 19
Last Quarter
Jun 27
New

Hourly Weather History & Observations

Time (CDT) Temp. Heat Index Dew Point Humidity Pressure Visibility Wind Dir Wind Speed Gust Speed Precip Events Conditions
1:54 AM 64.9 °F - 60.1 °F 84% 29.97 in 10.0 mi NNW 4.6 mph - N/A   Clear
3:54 AM 62.1 °F - 57.9 °F 86% 29.99 in 10.0 mi NNW 6.9 mph - N/A   Clear
4:54 AM 62.1 °F - 57.9 °F 86% 29.99 in 10.0 mi NNW 5.8 mph - N/A   Clear
5:54 AM 61.0 °F - 57.0 °F 87% 29.99 in 10.0 mi North 6.9 mph - N/A   Clear
6:54 AM 63.0 °F - 57.9 °F 84% 30.00 in 10.0 mi NNW 6.9 mph - N/A   Clear
7:54 AM 69.1 °F - 60.1 °F 73% 30.01 in 10.0 mi North 5.8 mph - N/A   Clear
8:54 AM 71.1 °F - 61.0 °F 70% 30.01 in 10.0 mi Calm Calm - N/A   Clear
9:54 AM 75.0 °F - 63.0 °F 66% 30.01 in 10.0 mi East 5.8 mph - N/A   Clear
10:54 AM 78.1 °F - 63.0 °F 60% 30.01 in 10.0 mi East 6.9 mph - N/A   Scattered Clouds
11:10 AM 80.1 °F 81.5 °F 63.0 °F 56% 30.04 in 10.0 mi East 12.7 mph - N/A   Mostly Cloudy
11:19 AM 81.0 °F 82.2 °F 63.0 °F 54% 30.04 in 10.0 mi East 9.2 mph - N/A   Mostly Cloudy
11:54 AM 81.0 °F 81.9 °F 62.1 °F 52% 30.00 in 10.0 mi East 11.5 mph - N/A   Partly Cloudy
12:54 PM 82.9 °F 84.0 °F 63.0 °F 51% 29.99 in 10.0 mi ESE 9.2 mph - N/A   Mostly Cloudy
1:54 PM 82.9 °F 83.7 °F 62.1 °F 49% 29.97 in 10.0 mi East 8.1 mph - N/A   Overcast
2:54 PM 84.9 °F 85.4 °F 62.1 °F 46% 29.95 in 10.0 mi East 13.8 mph 18.4 mph N/A   Mostly Cloudy
5:54 PM 86.0 °F 86.1 °F 61.0 °F 43% 29.91 in 10.0 mi ENE 9.2 mph - N/A   Clear
6:54 PM 84.0 °F 84.4 °F 61.0 °F 46% 29.91 in 10.0 mi East 12.7 mph - N/A   Scattered Clouds
7:54 PM 84.0 °F 84.4 °F 61.0 °F 46% 29.91 in 10.0 mi ESE 12.7 mph - N/A   Scattered Clouds
8:54 PM 80.1 °F 81.1 °F 61.0 °F 52% 29.93 in 10.0 mi SE 9.2 mph - N/A   Clear
9:54 PM 75.0 °F - 60.1 °F 60% 29.95 in 10.0 mi SE 6.9 mph - N/A   Clear
10:54 PM 73.9 °F - 61.0 °F 64% 29.96 in 10.0 mi ESE 6.9 mph - N/A   Clear
11:54 PM 72.0 °F - 61.0 °F 68% 29.97 in 10.0 mi SE 5.8 mph - N/A   Clear